| time (UTC) | temp F | wind direction | speed knots | gust knots | rain 1hr in | rain 24hr in | rain mn in | humidity % | barometer mb |
| 20260509101535 | 50 | 167 | 15.6 | 25.2 | 0.00 | 0.00 | 0.00 | 89 | 1001.5 |
| 20260509100022 | 50 | 194 | 17.4 | 24.3 | 0.00 | 0.00 | 0.00 | 90 | 1001.7 |
| 20260509094522 | 50 | 188 | 17.4 | 26.1 | 0.00 | 0.00 | 0.00 | 89 | 1001.8 |
| 20260509093028 | 50 | 187 | 14.8 | 23.5 | 0.00 | 0.00 | 0.00 | 89 | 1002.1 |
| 20260509091521 | 50 | 204 | 13.0 | 21.7 | 0.00 | 0.00 | 0.00 | 88 | 1002.4 |
| 20260509090026 | 51 | 189 | 13.9 | 23.5 | 0.00 | 0.00 | 0.00 | 88 | 1002.6 |
| 20260509084527 | 51 | 175 | 13.9 | 22.6 | 0.00 | 0.00 | 0.00 | 88 | 1002.6 |
| 20260509083023 | 50 | 190 | 13.9 | 20.0 | 0.00 | 0.00 | 0.00 | 88 | 1002.8 |
| 20260509081531 | 51 | 202 | 12.2 | 20.9 | 0.00 | 0.00 | 0.00 | 87 | 1002.9 |
| 20260509080015 | 51 | 192 | 12.2 | 18.2 | 0.00 | 0.00 | 0.00 | 88 | 1002.9 |
| 20260509074525 | 50 | 180 | 13.0 | 19.1 | 0.00 | 0.00 | 0.00 | 87 | 1003.1 |
| 20260509073028 | 51 | 186 | 12.2 | 19.1 | 0.00 | 0.00 | 0.00 | 87 | 1003.2 |
| 20260509071520 | 51 | 192 | 12.2 | 19.1 | 0.00 | 0.00 | 0.00 | 86 | 1003.4 |
| 20260509070026 | 52 | 202 | 11.3 | 18.2 | 0.00 | 0.00 | 0.00 | 84 | 1003.6 |
| 20260509064515 | 53 | 202 | 13.0 | 22.6 | 0.00 | 0.00 | 0.00 | 82 | 1003.9 |
| 20260509063023 | 54 | 197 | 12.2 | 19.1 | 0.00 | 0.00 | 0.00 | 79 | 1004.3 |
| 20260509061527 | 54 | 183 | 11.3 | 19.1 | 0.00 | 0.00 | 0.00 | 73 | 1004.2 |
| 20260509060016 | 55 | 194 | 12.2 | 18.2 | 0.00 | 0.00 | 0.00 | 67 | 1004.4 |
| 20260509054524 | 56 | 180 | 11.3 | 17.4 | 0.00 | 0.00 | 0.00 | 61 | 1004.5 |
| 20260509053012 | 56 | 196 | 8.7 | 18.2 | 0.00 | 0.00 | 0.00 | 51 | 1004.5 |
| 20260509051521 | 56 | 171 | 11.3 | 19.1 | 0.00 | 0.00 | 0.00 | 48 | 1004.6 |
| 20260509050028 | 56 | 178 | 10.4 | 17.4 | 0.00 | 0.00 | 0.00 | 47 | 1004.5 |
| 20260509044514 | 57 | 167 | 10.4 | 17.4 | 0.00 | 0.00 | 0.00 | 45 | 1004.6 |
| 20260509043027 | 57 | 146 | 9.6 | 17.4 | 0.00 | 0.00 | 0.00 | 40 | 1004.7 |
| 20260509041526 | 57 | 163 | 8.7 | 16.5 | 0.00 | 0.00 | 0.00 | 44 | 1004.8 |
| 20260509040020 | 57 | 161 | 9.6 | 14.8 | 0.00 | 0.00 | 0.00 | 52 | 1005.0 |
| 20260509034539 | 57 | 164 | 8.7 | 15.6 | 0.00 | 0.00 | 0.00 | 51 | 1005.2 |
| 20260509033013 | 57 | 171 | 7.8 | 13.9 | 0.00 | 0.00 | 0.00 | 51 | 1005.5 |
| 20260509031524 | 57 | 157 | 7.8 | 16.5 | 0.00 | 0.00 | 0.00 | 47 | 1005.6 |
| 20260509030027 | 57 | 159 | 7.0 | 13.0 | 0.00 | 0.00 | 0.00 | 33 | 1005.7 |
| 20260509024516 | 57 | 177 | 6.1 | 13.0 | 0.00 | 0.00 | 0.00 | 30 | 1005.9 |
| 20260509023031 | 57 | 167 | 7.8 | 13.9 | 0.00 | 0.00 | 0.00 | 28 | 1005.9 |
| 20260509021527 | 57 | 175 | 7.0 | 10.4 | 0.00 | 0.00 | 0.00 | 27 | 1006.1 |
| 20260509020019 | 57 | 152 | 5.2 | 8.7 | 0.00 | 0.00 | 0.00 | 26 | 1006.2 |
| 20260509014524 | 56 | 148 | 3.5 | 8.7 | 0.00 | 0.00 | 0.00 | 26 | 1006.1 |
| 20260509013028 | 55 | 155 | 3.5 | 7.8 | 0.00 | 0.00 | 0.00 | 28 | 1006.0 |
| 20260509011524 | 55 | 146 | 1.7 | 4.3 | 0.00 | 0.00 | 0.00 | 32 | 1006.0 |
| 20260509010033 | 55 | 177 | 0.0 | 0.9 | 0.00 | 0.00 | 0.00 | 31 | 1006.1 |
| 20260509004531 | 55 | 167 | 3.5 | 7.0 | 0.00 | 0.00 | 0.00 | 66 | 1006.0 |
| 20260509003025 | 58 | 200 | 1.7 | 4.3 | 0.00 | 0.00 | 0.00 | 48 | 1006.1 |
| 20260509001510 | 56 | 194 | 5.2 | 10.4 | 0.00 | 0.00 | 0.00 | 45 | 1006.2 |
| 20260509000020 | 56 | 180 | 6.1 | 12.2 | 0.00 | 0.00 | 0.00 | 47 | 1006.4 |
| 20260508234506 | 56 | 193 | 7.8 | 13.9 | 0.00 | 0.00 | 0.00 | 39 | 1006.6 |
| 20260508233014 | 57 | 215 | 7.0 | 13.0 | 0.00 | 0.00 | 0.00 | 37 | 1006.9 |
| 20260508231523 | 56 | 175 | 8.7 | 14.8 | 0.00 | 0.00 | 0.00 | 35 | 1007.0 |
| 20260508230008 | 55 | 194 | 7.8 | 12.2 | 0.00 | 0.00 | 0.00 | 46 | 1007.2 |
| 20260508224522 | 55 | 171 | 6.1 | 11.3 | 0.00 | 0.00 | 0.00 | 52 | 1007.4 |
| 20260508223004 | 55 | 182 | 6.1 | 10.4 | 0.00 | 0.00 | 0.00 | 56 | 1007.5 |
| 20260508221514 | 54 | 190 | 7.0 | 10.4 | 0.00 | 0.00 | 0.00 | 59 | 1007.7 |
| 20260508220027 | 54 | 200 | 5.2 | 9.6 | 0.00 | 0.00 | 0.00 | 58 | 1007.9 |
| 20260508214509 | 54 | 195 | 5.2 | 9.6 | 0.00 | 0.00 | 0.00 | 62 | 1007.9 |
| 20260508213018 | 53 | 194 | 5.2 | 7.8 | 0.00 | 0.00 | 0.00 | 63 | 1008.1 |
| 20260508211525 | 53 | 204 | 5.2 | 11.3 | 0.00 | 0.00 | 0.00 | 64 | 1008.1 |
| 20260508210011 | 54 | 189 | 6.1 | 9.6 | 0.00 | 0.00 | 0.00 | 64 | 1008.3 |
| 20260508204520 | 54 | 208 | 4.3 | 8.7 | 0.00 | 0.00 | 0.00 | 67 | 1008.5 |
| 20260508203025 | 54 | 207 | 4.3 | 8.7 | 0.00 | 0.00 | 0.00 | 67 | 1008.7 |
| 20260508201513 | 54 | 213 | 4.3 | 7.8 | 0.00 | 0.00 | 0.00 | 67 | 1008.7 |
| 20260508200023 | 53 | 207 | 5.2 | 7.8 | 0.00 | 0.00 | 0.00 | 69 | 1009.0 |
| 20260508194513 | 53 | 224 | 3.5 | 8.7 | 0.00 | 0.00 | 0.00 | 71 | 1009.2 |
| 20260508193035 | 52 | 187 | 4.3 | 7.8 | 0.00 | 0.00 | 0.00 | 75 | 1009.5 |
| 20260508191524 | 52 | 215 | 5.2 | 9.6 | 0.00 | 0.00 | 0.00 | 76 | 1009.6 |
| 20260508190024 | 52 | 182 | 6.1 | 11.3 | 0.00 | 0.00 | 0.00 | 77 | 1009.7 |
| 20260508184529 | 51 | 200 | 6.1 | 9.6 | 0.00 | 0.00 | 0.00 | 79 | 1009.8 |
| 20260508183036 | 51 | 207 | 4.3 | 7.8 | 0.00 | 0.00 | 0.00 | 77 | 1009.9 |
| 20260508181519 | 52 | 219 | 4.3 | 7.8 | 0.00 | 0.00 | 0.00 | 74 | 1010.1 |
| 20260508180026 | 52 | 200 | 4.3 | 7.8 | 0.00 | 0.00 | 0.00 | 75 | 1010.2 |
| 20260508174510 | 51 | 188 | 5.2 | 7.8 | 0.00 | 0.00 | 0.00 | 76 | 1010.3 |
| 20260508173020 | 52 | 200 | 5.2 | 7.8 | 0.00 | 0.00 | 0.00 | 76 | 1010.6 |
| 20260508171526 | 52 | 213 | 4.3 | 7.0 | 0.00 | 0.00 | 0.00 | 75 | 1010.6 |
| 20260508170012 | 52 | 171 | 4.3 | 7.8 | 0.00 | 0.00 | 0.00 | 75 | 1010.8 |
| 20260508164528 | 52 | 195 | 4.3 | 8.7 | 0.00 | 0.00 | 0.00 | 78 | 1011.3 |
| 20260508163031 | 51 | 205 | 6.1 | 7.8 | 0.00 | 0.00 | 0.00 | 78 | 1011.3 |
| 20260508161516 | 52 | 213 | 5.2 | 7.8 | 0.00 | 0.00 | 0.00 | 77 | 1011.4 |
| 20260508160028 | 51 | 219 | 4.3 | 10.4 | 0.00 | 0.00 | 0.00 | 79 | 1011.3 |
| 20260508154526 | 51 | 216 | 4.3 | 7.8 | 0.00 | 0.00 | 0.00 | 79 | 1011.2 |
| 20260508153030 | 50 | 208 | 5.2 | 8.7 | 0.00 | 0.00 | 0.00 | 80 | 1011.4 |
| 20260508151503 | 51 | 209 | 5.2 | 7.8 | 0.00 | 0.00 | 0.00 | 81 | 1011.4 |
| 20260508150016 | 50 | 185 | 6.1 | 11.3 | 0.00 | 0.00 | 0.00 | 82 | 1011.4 |
| 20260508144528 | 50 | 198 | 5.2 | 8.7 | 0.00 | 0.00 | 0.00 | 82 | 1011.7 |
| 20260508143010 | 50 | 208 | 5.2 | 11.3 | 0.00 | 0.00 | 0.00 | 80 | 1011.5 |
| 20260508141516 | 50 | 200 | 6.1 | 10.4 | 0.00 | 0.00 | 0.00 | 79 | 1011.5 |
| 20260508140027 | 49 | 196 | 7.0 | 9.6 | 0.00 | 0.00 | 0.00 | 79 | 1011.5 |
| 20260508134512 | 49 | 211 | 6.1 | 8.7 | 0.00 | 0.00 | 0.00 | 78 | 1011.5 |
| 20260508133025 | 49 | 204 | 4.3 | 8.7 | 0.00 | 0.00 | 0.00 | 80 | 1011.4 |
| 20260508131525 | 48 | 182 | 4.3 | 8.7 | 0.00 | 0.00 | 0.00 | 81 | 1011.4 |
| 20260508130029 | 48 | 209 | 4.3 | 7.8 | 0.00 | 0.00 | 0.00 | 81 | 1011.7 |
| 20260508124521 | 47 | 179 | 3.5 | 8.7 | 0.00 | 0.00 | 0.00 | 80 | 1011.7 |
| 20260508123014 | 46 | 182 | 4.3 | 7.0 | 0.00 | 0.00 | 0.00 | 80 | 1011.7 |
| 20260508121521 | 45 | 155 | 2.6 | 4.3 | 0.00 | 0.00 | 0.00 | 79 | 1011.7 |
| 20260508120025 | 43 | 167 | 2.6 | 3.5 | 0.00 | 0.00 | 0.00 | 78 | 1011.4 |
| 20260508114512 | 42 | 62 | 0.0 | 1.7 | 0.00 | 0.00 | 0.00 | 74 | 1011.4 |
| 20260508113022 | 40 | 62 | 0.0 | 1.7 | 0.00 | 0.00 | 0.00 | 75 | 1011.3 |
| 20260508111525 | 39 | 62 | 0.0 | 0.0 | 0.00 | 0.00 | 0.00 | 75 | 1011.1 |
| 20260508110016 | 39 | 62 | 0.0 | 0.0 | 0.00 | 0.00 | 0.00 | 76 | 1011.1 |
| 20260508104524 | 39 | 62 | 0.0 | 0.9 | 0.00 | 0.00 | 0.00 | 74 | 1011.0 |
| 20260508103034 | 39 | 62 | 0.0 | 0.0 | 0.00 | 0.00 | 0.00 | 74 | 1010.8 |